User: anonymous   Login
Location: Caltech
(34.1382°N, 118.1253°W)
Time: 09:12:22
(UTC-07:00)
Language:

JAS-1B - Orbit

View from above orbital plane
View from above orbital plane
View from above satellite
View from above satellite

Ground track
Ground track

The orbit data is extracted from the following two-line orbital elements,

1 20480U 90013C   15211.23635035 -.00000007  00000-0  51837-4 0  9990
2 20480 099.0625 103.3497 0540619 149.9774 326.8573 12.83406267193477
Epoch (UTC): 30 July 2015 05:40:20
Eccentricity: 0.0540619
inclination: 99.0625°
perigee height: 911 km
apogee height: 1744 km
right ascension of ascending node: 103.3497°
argument of perigee: 149.9774°
revolutions per day: 12.83406267
mean anomaly at epoch: 326.8573°
orbit number at epoch: 19347

The dashed part of the orbit path shows where the satellite is in the earth's shadow,  

DLR